Time,TemperatureF,DewpointF,PressureIn,WindDirection,WindDirectionDegrees,WindSpeedMPH,WindSpeedGustMPH,Humidity,HourlyPrecipIn,Conditions,Clouds,dailyrainin,SolarRadiationWatts/m^2,SoftwareType,DateUTC
2013-01-06 13:02:00,36.0,29.0,-100.00,SSE,158,8.0,17.0,75,0.00,,,0.00,467.000000,,2013-01-06 21:02:00,
2013-01-06 13:33:00,36.0,29.0,-100.00,SSE,158,8.0,17.0,75,0.00,,,0.00,467.000000,,2013-01-06 21:33:00,
2013-01-06 13:43:00,36.0,29.0,-100.00,SSE,158,8.0,17.0,75,0.00,,,0.00,467.000000,,2013-01-06 21:43:00,
2013-01-06 13:53:00,36.0,29.0,-100.00,SSE,158,8.0,17.0,75,0.00,,,0.00,467.000000,,2013-01-06 21:53:00,
2013-01-06 14:02:00,36.0,30.0,-100.00,SSE,159,8.0,19.0,80,0.00,,,0.00,362.000000,,2013-01-06 22:02:00,
2013-01-06 14:33:00,36.0,30.0,-100.00,SSE,159,8.0,19.0,80,0.00,,,0.00,362.000000,,2013-01-06 22:33:00,
2013-01-06 14:43:00,36.0,30.0,-100.00,SSE,159,8.0,19.0,80,0.00,,,0.00,362.000000,,2013-01-06 22:43:00,
2013-01-06 14:52:00,36.0,30.0,-100.00,SSE,159,8.0,19.0,80,0.00,,,0.00,362.000000,,2013-01-06 22:52:00,
2013-01-06 15:02:00,34.0,31.0,-100.00,SE,140,10.0,17.0,88,0.00,,,0.00,231.000000,,2013-01-06 23:02:00,
2013-01-06 15:33:00,34.0,31.0,-100.00,SE,140,10.0,17.0,88,0.00,,,0.00,231.000000,,2013-01-06 23:33:00,
2013-01-06 15:43:00,34.0,31.0,-100.00,SE,140,10.0,17.0,88,0.00,,,0.00,231.000000,,2013-01-06 23:43:00,
2013-01-06 15:53:00,34.0,31.0,-100.00,SE,140,10.0,17.0,88,0.00,,,0.00,231.000000,,2013-01-06 23:53:00,
2013-01-06 16:02:00,33.0,29.0,-100.00,SSE,154,9.0,20.0,86,0.00,,,0.00,140.000000,,2013-01-07 00:02:00,
2013-01-06 16:33:00,33.0,29.0,-100.00,SSE,154,9.0,20.0,86,0.00,,,0.00,140.000000,,2013-01-07 00:33:00,
2013-01-06 16:43:00,33.0,29.0,-100.00,SSE,154,9.0,20.0,86,0.00,,,0.00,140.000000,,2013-01-07 00:43:00,
2013-01-06 16:53:00,33.0,29.0,-100.00,SSE,154,9.0,20.0,86,0.00,,,0.00,140.000000,,2013-01-07 00:53:00,
2013-01-06 17:23:00,33.0,30.0,-100.00,SE,145,6.0,15.0,90,0.00,,,0.00,13.000000,,2013-01-07 01:23:00,
2013-01-06 17:32:00,33.0,30.0,-100.00,SE,145,6.0,15.0,90,0.00,,,0.00,13.000000,,2013-01-07 01:32:00,
2013-01-06 17:43:00,33.0,30.0,-100.00,SE,145,6.0,15.0,90,0.00,,,0.00,13.000000,,2013-01-07 01:43:00,
2013-01-06 17:53:00,33.0,30.0,-100.00,SE,145,6.0,15.0,90,0.00,,,0.00,13.000000,,2013-01-07 01:53:00,
2013-01-06 18:01:00,33.0,30.0,-100.00,SE,145,6.0,15.0,90,0.00,,,0.00,13.000000,,2013-01-07 02:01:00,
2013-01-06 18:02:00,32.0,30.0,-100.00,South,186,8.0,14.0,92,0.00,,,0.00,0.000000,,2013-01-07 02:02:00,
2013-01-06 18:23:00,32.0,30.0,-100.00,South,186,8.0,14.0,92,0.00,,,0.00,0.000000,,2013-01-07 02:23:00,
2013-01-06 18:32:00,32.0,30.0,-100.00,South,186,8.0,14.0,92,0.00,,,0.00,0.000000,,2013-01-07 02:32:00,
2013-01-06 18:43:00,32.0,30.0,-100.00,South,186,8.0,14.0,92,0.00,,,0.00,0.000000,,2013-01-07 02:43:00,
2013-01-06 18:53:00,32.0,30.0,-100.00,South,186,8.0,14.0,92,0.00,,,0.00,0.000000,,2013-01-07 02:53:00,
2013-01-06 19:02:00,32.0,32.0,-100.00,SSE,159,6.0,11.0,98,0.00,,,0.00,0.000000,,2013-01-07 03:02:00,
2013-01-06 19:23:00,32.0,32.0,-100.00,SSE,159,6.0,11.0,98,0.00,,,0.00,0.000000,,2013-01-07 03:23:00,
2013-01-06 19:33:00,32.0,32.0,-100.00,SSE,159,6.0,11.0,98,0.00,,,0.00,0.000000,,2013-01-07 03:33:00,
2013-01-06 19:43:00,32.0,32.0,-100.00,SSE,159,6.0,11.0,98,0.00,,,0.00,0.000000,,2013-01-07 03:43:00,
2013-01-06 19:52:00,32.0,32.0,-100.00,SSE,159,6.0,11.0,98,0.00,,,0.00,0.000000,,2013-01-07 03:52:00,
2013-01-06 20:02:00,32.0,32.0,-100.00,SW,231,3.0,10.0,99,0.00,,,0.00,0.000000,,2013-01-07 04:02:00,
2013-01-06 20:33:00,32.0,32.0,-100.00,SW,231,3.0,10.0,99,0.00,,,0.00,0.000000,,2013-01-07 04:33:00,
2013-01-06 20:42:00,32.0,32.0,-100.00,SW,231,3.0,10.0,99,0.00,,,0.00,0.000000,,2013-01-07 04:42:00,
2013-01-06 20:52:00,32.0,32.0,-100.00,SW,231,3.0,10.0,99,0.00,,,0.00,0.000000,,2013-01-07 04:52:00,
2013-01-06 21:02:00,31.0,31.0,-100.00,WSW,251,3.0,5.0,100,0.00,,,0.00,0.000000,,2013-01-07 05:02:00,
2013-01-06 21:22:00,31.0,31.0,-100.00,WSW,251,3.0,5.0,100,0.00,,,0.00,0.000000,,2013-01-07 05:22:00,
2013-01-06 21:33:00,31.0,31.0,-100.00,WSW,251,3.0,5.0,100,0.00,,,0.00,0.000000,,2013-01-07 05:33:00,
2013-01-06 21:43:00,31.0,31.0,-100.00,WSW,251,3.0,5.0,100,0.00,,,0.00,0.000000,,2013-01-07 05:43:00,
2013-01-06 21:52:00,31.0,31.0,-100.00,WSW,251,3.0,5.0,100,0.00,,,0.00,0.000000,,2013-01-07 05:52:00,
2013-01-06 22:02:00,30.0,30.0,-100.00,West,265,3.0,8.0,100,0.00,,,0.00,0.000000,,2013-01-07 06:02:00,
2013-01-06 22:22:00,30.0,30.0,-100.00,West,265,3.0,8.0,100,0.00,,,0.00,0.000000,,2013-01-07 06:22:00,
2013-01-06 22:32:00,30.0,30.0,-100.00,West,265,3.0,8.0,100,0.00,,,0.00,0.000000,,2013-01-07 06:32:00,
2013-01-06 22:42:00,30.0,30.0,-100.00,West,265,3.0,8.0,100,0.00,,,0.00,0.000000,,2013-01-07 06:42:00,
2013-01-06 22:52:00,30.0,30.0,-100.00,West,265,3.0,8.0,100,0.00,,,0.00,0.000000,,2013-01-07 06:52:00,
2013-01-06 23:02:00,31.0,31.0,-100.00,WNW,289,8.0,14.0,100,0.00,,,0.00,0.000000,,2013-01-07 07:02:00,
2013-01-06 23:33:00,31.0,31.0,-100.00,WNW,289,8.0,14.0,100,0.00,,,0.00,0.000000,,2013-01-07 07:33:00,
2013-01-06 23:42:00,31.0,31.0,-100.00,WNW,289,8.0,14.0,100,0.00,,,0.00,0.000000,,2013-01-07 07:42:00,
2013-01-06 23:52:00,31.0,31.0,-100.00,WNW,289,8.0,14.0,100,0.00,,,0.00,0.000000,,2013-01-07 07:52:00,